Tracking 27124 objects as of 31-Mar-2023
HD Live streaming from Space Station
objects crossing your sky now

ANIK F2

Track ANIK F2 now!
ANIK F2 is classified as:


NORAD ID: 28378
Int'l Code: 2004-027A
Perigee: 35,785.3 km
Apogee: 35,802.6 km
Inclination: 0.3 °
Period: 1,436.1 minutes
Semi major axis: 42164 km
RCS: 28.1838 m2 (large)
Launch date: July 18, 2004
Source: Canada (CA)
Launch site: FRENCH GUIANA (FRGUI)

24 30W C-band, 40 127W Ku-band, 50 90W transponders for broadband and telemedicine to northern US states and Canada
Your satellite tracking list
Your tracking list is empty




NASA's NSSDC Master Catalog

Two Line Element Set (TLE):
1 28378U 04027A   23089.62688382 -.00000056  00000-0  00000-0 0  9998
2 28378   0.3286  91.6813 0002051 306.8763 263.7528  1.00270972 29482
Source of the keplerian elements: AFSPC